Location: Bergnershof
(48.9468°N, 10.9431°E)
Time: 23:46:11
(UTC+00:00)

ATLAS CENTAUR R/B - Pass Details

Date: 03 March 2021
Orbit: 475 x 670 km, 64.7° (Epoch: 30 March)

Event Time Altitude Azimuth Distance (km) Brightness Sun altitude
Rises 18:19:11 0° 203° (SSW) 2,520 4.9 -13.3°
Reaches altitude 10° 18:21:21 10° 198° (SSW) 1,640 3.9 -13.7°
Maximum altitude 18:24:51 48° 124° (ESE) 632 1.2 -14.2°
Enters shadow 18:27:02 21° 57° (ENE) 1,141 2.5 -14.6°
